Regional Weather Roundup
Issued by NWS

Home | Current Version | Previous Version | Graphics & Text | Print | Product List | Glossary On
Versions: 1 2 3 4 5 6 7 8 9 10 11 12 13 14 15 16 17 18 19 20 21 22 23 24 25 26 27 28 29 30 31 32 33 34 35 36 37 38 39 40 41 42 43 44 45 46 47 48 49 50
000
ASUS43 KMPX 180810
RWRMN
WEATHER ROUNDUP FOR MINNESOTA
NATIONAL WEATHER SERVICE TWIN CITIES/CHANHASSEN MN
200 AM CST WED JAN 18 2017


NOTE: "FAIR" INDICATES FEW OR NO CLOUDS BELOW 12,000 FEET WITH NO
SIGNIFICANT WEATHER AND/OR OBSTRUCTIONS TO VISIBILITY. N/A MEANS
CURRENT SKY AND/OR WEATHER CONDITIONS ARE NOT AVAILABLE.

MNZ060>063-068>070-180900-
   Twin Cities Metro

CITY           SKY/WX    TMP DP  RH WIND       PRES   REMARKS
TWIN CITIES    CLOUDY    29  25  85 S8        29.97F WCI  21
ST PAUL        PTCLDY    29  27  92 SE7       29.98F WCI  22
CRYSTAL        CLOUDY    28  24  85 S7        29.94F WCI  21
BLAINE         CLOUDY    30  30 100 S8        29.94F WCI  23
LAKEVILLE      CLOUDY    25  25 100 S7        29.97F WCI  17
EDEN PRAIRIE   CLOUDY    28  24  85 S10       29.95F WCI  19
SOUTH ST PAUL  CLOUDY    29  28  94 S5        29.97F WCI  24
LAKE ELMO      CLOUDY    30  30 100 S12       29.97F FOG     WCI  21
$$
MNZ001>005-007-008-013>017-022>024-027-028-180900-
   Northwest Minnesota

CITY           SKY/WX    TMP DP  RH WIND       PRES   REMARKS
BEMIDJI        CLOUDY    26  18  72 SW7       29.71F WCI  18
HALLOCK        CLOUDY    19  16  86 S15       29.63F WCI   5
ROSEAU         CLOUDY    23  18  80 S15       29.62F WCI  10
WARROAD        CLOUDY    23  18  80 SW12      29.63F WCI  12
THIEF RVR FALL CLOUDY    22  17  81 S17       29.68F WCI   8
CROOKSTON      CLOUDY    21  18  86 S14       29.71F WCI   8
FOSSTON        CLOUDY    23  18  80 S17       29.73R WCI   9
DETROIT LAKES  CLOUDY    30  23  74 SW12      29.78R WCI  21
MOORHEAD       CLOUDY    21  16  79 S13       29.78S WCI   9
PARK RAPIDS    CLOUDY    20  13  74 S8        29.76S WCI  10
MAHNOMEN       FAIR      27  22  82 SW21      29.73S WCI  13
$$
MNZ006-009>011-018-025>026-180900-
   North Central Minnesota

CITY           SKY/WX    TMP DP  RH WIND       PRES   REMARKS
BAUDETTE       CLOUDY    26  17  68 SW10      29.65S WCI  16
FLAG ISLAND    CLEAR     23  18  80 SW8       29.62R WCI  14
INTL FALLS     CLOUDY    28  18  66 SW8       29.67R WCI  20
WASKISH        CLOUDY    28  19  69 SW9G16    29.68R WCI  20
BIG FORK       CLOUDY    27  19  74 S13G20    29.70F WCI  16
LONGVILLE      CLOUDY    23  18  80 S8        29.77F WCI  14
GRAND RAPIDS   CLOUDY    21  17  84 S7        29.79F WCI  12
CRANE LAKE     CLOUDY    27  18  69 S6        29.71F WCI  20
ORR            CLOUDY    27  16  63 S7G17     29.67F WCI  19
COOK           CLOUDY    25  18  74 S8        29.73F WCI  16
WALKER         FAIR      24  17  76 SW14G20   29.74S WCI  11
$$
MNZ012-019>021-037-180900-
   Northeast Minnesota

CITY           SKY/WX    TMP DP  RH WIND       PRES   REMARKS
DULUTH         CLOUDY    25  23  92 SW13      29.80F FOG     WCI  14
ELY            CLOUDY    25  18  74 SW8       29.73F WCI  16
HIBBING        CLOUDY    19  16  88 S7        29.77F WCI  10
EVELETH        CLOUDY    23  18  81 SW12G17   29.78F WCI  11
DULUTH HARBOR  CLOUDY    25  21  86 CALM      29.86F FOG
TWO HARBORS    CLOUDY    25  19  80 SW7       29.80S WCI  17
SILVER BAY     CLOUDY    19  18  93 CALM      29.79S
GRAND MARAIS     N/A     29  25  85 W5        29.80F WCI  24
G MARAIS ARPRT CLEAR     21  19  93 SW3       29.74F FOG
$$
MNZ029>031-032-039>041-046>048-054>057-064-180900-
   West Central Minnesota

CITY           SKY/WX    TMP DP  RH WIND       PRES   REMARKS
FERGUS FALLS   CLOUDY    19  16  86 S13       29.85F WCI   7
WHEATON        CLOUDY    28  27  93 S10       29.83F WCI  19
MORRIS         CLOUDY    16  14  93 S10       29.85S WCI   3
ALEXANDRIA     CLOUDY    22  19  89 SW14      29.84F WCI   9
ELBOW LAKE     FAIR      20  18  91 S15       29.83S FOG     WCI   6
WADENA         CLOUDY    23  18  80 S10       29.78F WCI  12
GLENWOOD       CLOUDY    19  18  93 S10       29.86F WCI   8
APPLETON       CLOUDY    21  19  93 S7        29.87S WCI  13
ORTONVILLE     CLOUDY    21  18  86 CALM      29.85F
MADISON        CLOUDY    25  21  86 SW7       29.89R WCI  17
WILLMAR        FAIR      16  14  93 CALM      29.90F
$$
MNZ033>034-036-042>043-049>051-058-059-180900-
   Central Minnesota

CITY           SKY/WX    TMP DP  RH WIND       PRES   REMARKS
ST CLOUD       CLOUDY    19  19 100 S7        29.90F FOG     WCI  10
SAUK CENTRE    FAIR      19  17  93 S10       29.86F WCI   7
PAYNESVILLE    CLOUDY    20  20 100 CALM      29.90F
AITKIN         CLOUDY    23  18  80 S8        29.82R WCI  14
PINE RIVER     CLOUDY    18  16  93 SE6       29.83F WCI   9
BRAINERD       CLOUDY    19  17  92 S10       29.84S FOG     WCI   7
STAPLES        CLOUDY    18  16  93 S9        29.81F WCI   6
LONG PRAIRIE   FAIR      18  16  93 S7        29.86S FOG     WCI   8
LITTLE FALLS   CLOUDY    19  16  86 S6        29.88S FOG     WCI  11
LITCHFIELD     CLOUDY    25  23  93 CALM      29.91F
BUFFALO        CLOUDY    26  24  92 S6        29.94S WCI  19
MAPLE LAKE     CLOUDY    25  25  99 S6        29.93S WCI  18
HUTCHINSON     CLOUDY    23  22  96 CALM      29.94S
$$
MNZ037-044-045-052-053-180900-
   East Central Minnesota

CITY           SKY/WX    TMP DP  RH WIND       PRES   REMARKS
PRINCETON      CLOUDY    28  27  93 S5        29.92S WCI  23
MORA           CLOUDY    27  27 100 SW7       29.92S FOG     WCI  19
CAMBRIDGE      CLOUDY    30  25  80 S8        29.91S WCI  23
RUSH CITY      CLOUDY    27  25  93 S9        29.93S FOG     WCI  17
MOOSE LAKE     CLOUDY    25  23  93 SW9       29.85S WCI  15
HINCKLEY       CLOUDY    27  27 100 SW9       29.91S FOG     WCI  17
CLOQUET        CLOUDY    25  23  93 SW9G16    29.83S FOG     WCI  15
MCGREGOR       CLOUDY    23  21  93 S6        29.84R WCI  16
$$
MNZ071>073-080-081-089-090-097-098-180900-
   Southwest Minnesota

CITY           SKY/WX    TMP DP  RH WIND       PRES   REMARKS
MONTEVIDEO     CLOUDY    23  21  93 SW7       29.90S WCI  15
GRANITE FALLS  CLOUDY    25  23  92 S7        29.91S WCI  17
CANBY            N/A     34  28  79 CALM      29.88R
MARSHALL       CLOUDY    30  26  85 SW15      29.88R WCI  19
REDWOOD FALLS  CLOUDY    23  19  85 S5        29.92S WCI  17
OLIVIA         CLOUDY    23  21  93 S8        29.90S WCI  14
PIPESTONE      CLOUDY    28  27  93 SW16      29.89F WCI  17
WINDOM         CLOUDY    27  25  93 S9        29.94F WCI  17
WORTHINGTON    CLOUDY    28  26  92 S16       29.94F WCI  16
JACKSON        CLOUDY    27  23  86 S6        29.97S WCI  20
TRACY          CLOUDY    32  28  86 SW26G33   29.86F WCI  18
SLAYTON        CLOUDY    27  26  96 S15       29.92F WCI  15
$$
MNZ065>067-074>077-082>085-091>093-180900-
   South Central Minnesota

CITY           SKY/WX    TMP DP  RH WIND       PRES   REMARKS
MANKATO        CLOUDY    26  24  92 S10       29.98F FOG     WCI  16
NEW ULM        CLOUDY    23  21  93 S9        29.94F WCI  13
ST JAMES       CLOUDY    27  25  93 S9        29.97F FOG     WCI  17
FAIRMONT       CLOUDY    27  26  96 S15       29.99S WCI  15
GLENCOE        CLOUDY    26  25  99 S8        29.94S WCI  17
FARIBAULT      CLOUDY    27  27 100 S12G17    29.99S FOG     WCI  16
OWATONNA       CLOUDY    27  25  93 S12       29.99F WCI  16
WASECA         CLOUDY    28  27  93 S13       30.01S FOG     WCI  18
ALBERT LEA     CLOUDY    28  28 100 S3        30.01S FOG
$$
MNZ078>079-086>088-094>096-180900-
   Southeast Minnesota

CITY           SKY/WX    TMP DP  RH WIND       PRES   REMARKS
ROCHESTER      CLOUDY    27  27 100 SW13      30.01R FOG     WCI  16
RED WING       CLOUDY    30  28  93 SW6       30.00S WCI  24
STANTON        CLOUDY    28  25  90 S7        29.98S WCI  21
DODGE CENTER   CLOUDY    27  27 100 SW5       30.00R FOG     WCI  21
WINONA         CLOUDY    34  32  93 W7        30.04R WCI  28
AUSTIN         CLOUDY    27  27 100 SW10      30.02S FOG     WCI  17
PRESTON        CLOUDY    27  26  96 W8        30.03R FOG     WCI  19
$$
ABBREVIATIONS USED IN REMARKS
   TC - TEMPERATURES IN CELSIUS
  WCI - WIND CHILL INDEX
   HX - HEAT INDEX
  VSB - VISIBILITY
$$




USA.gov is the U.S. government's official web portal to all federal, state and local government web resources and services.